Printer-friendly version

IAU Minor Planet Center

Minor Planet Center

MPEC 2004-V50 : 2004 VM24

The following Minor Planet Electronic Circular may be linked-to from your own Web pages, but must not otherwise be redistributed electronically.


Read MPEC 2004-V49 Read MPEC 2004-V51


M.P.E.C. 2004-V50                                Issued 2004 Nov.  9, 21:12 UT

     The Minor Planet Electronic Circulars contain information on unusual
         minor planets and routine data on comets.  They are published
   on behalf of Commission 20 of the International Astronomical Union by the
          Minor Planet Center, Smithsonian Astrophysical Observatory,
                          Cambridge, MA 02138, U.S.A.

                  Supported in part by the Brinson Foundation
             Prepared using the Tamkin Foundation Computer Network

                              MPC@CFA.HARVARD.EDU
          URL http://cfa-www.harvard.edu/iau/mpc.html  ISSN 1523-6714

                                   2004 VM24

Observations:
     K04V24M* C2004 11 09.37262 02 29 20.05 +25 04 05.8          16.6 R EV050703
     K04V24M  C2004 11 09.38635 02 29 03.73 +25 03 40.6          17.4 R EV050703
     K04V24M  C2004 11 09.39990 02 28 48.03 +25 03 15.0          17.5 R EV050703
     K04V24M  C2004 11 09.41348 02 28 32.23 +25 02 47.7          17.6 R EV050703
     K04V24M 1C2004 11 09.59314602 25 21.75 +25 05 16.9          18.4 R EV050413
     K04V24M 1C2004 11 09.59568202 25 18.32 +25 05 12.3          17.6 R EV050413
     K04V24M 1C2004 11 09.59695402 25 16.59 +25 05 09.9          17.6 R EV050413
     K04V24M 1C2004 11 09.59822202 25 14.88 +25 05 07.5          17.6 R EV050413
     K04V24M 1C2004 11 09.59949502 25 13.19 +25 05 05.1          18.0 R EV050413
     K04V24M 1C2004 11 09.66305702 23 46.77 +25 02 56.1          16.9 R EV050413
     K04V24M 1C2004 11 09.66432802 23 45.06 +25 02 52.8          17.2 R EV050413
     K04V24M 1C2004 11 09.67528402 23 30.00 +25 02 27.8          17.1 R EV050413
     K04V24M  C2004 11 09.83934 02 20 25.33 +24 48 33.9          18.1 R EV050J95
     K04V24M  C2004 11 09.84463 02 20 17.50 +24 48 25.1          18.1 R EV050J95
     K04V24M  C2004 11 09.84994 02 20 09.56 +24 48 15.7          18.1 R EV050J95

Observer details:
413 Siding Spring.  Observer R. H. McNaught.  1.0-m f/8 reflector + CCD.
703 Catalina Sky Survey.  Observer R. Hill.  Measurers E. C. Beshore,
    C. M. Casey, E. J. Christensen, G. J. Garradd, R. E. Hill, S. M. Larson,
    R. H. McNaught.  0.68-m Schmidt + CCD.
J95 Great Shefford.  Observer P. Birtwhistle.  0.30-m f/6.3 Schmidt-Cassegrain
    + CCD.

Orbital elements:
2004 VM24
Epoch 2005 Jan. 30.0 TT = JDT 2453400.5                 MPC
M  14.80911              (2000.0)            P               Q
n   0.81046308     Peri.  276.70302     -0.85029218     -0.52478469
a   1.1393239      Node   231.65127     +0.50080943     -0.78334494
e   0.4296521      Incl.    2.92747     +0.16184288     -0.33312419
P   1.22           H   25.5           G   0.15           U   7
Residuals in seconds of arc
041109 703 (4.8+  0.5-)   041109 413  0.1+  0.1-    041109 413  0.2+  0.0
041109 703  0.4-  0.3-    041109 413  0.2-  0.2-    041109 413  0.4-  0.3+
041109 703  0.3+  0.3+    041109 413  0.2-  0.3-    041109 J95  0.1-  0.0
041109 703  0.2+  0.2+    041109 413  0.1+  0.4-    041109 J95  0.2+  0.1+
041109 413  0.4+  0.0     041109 413  0.2-  0.5+    041109 J95  0.0   0.1-

Ephemeris:
2004 VM24                a,e,i = 1.14, 0.43, 3                   q = 0.6498
Date    TT    R. A. (2000) Decl.     Delta      r     Elong.  Phase     V
2004 11 01    03 09.96   +25 26.4    0.086    1.076   164.9    13.9    21.1
2004 11 02    03 08.59   +25 27.8    0.079    1.069   166.0    13.0    20.9
2004 11 03    03 06.88   +25 28.9    0.071    1.061   167.0    12.1    20.6
2004 11 04    03 04.74   +25 29.6    0.063    1.054   168.1    11.2    20.3
2004 11 05    03 01.99   +25 29.7    0.056    1.046   169.1    10.3    20.0
2004 11 06    02 58.37   +25 29.1    0.049    1.039   170.1     9.5    19.6
2004 11 07    02 53.43   +25 27.1    0.041    1.032   170.8     8.8    19.2
2004 11 08    02 46.34   +25 22.4    0.034    1.024   171.1     8.7    18.8
2004 11 09    02 35.35   +25 12.1    0.027    1.017   170.2     9.6    18.3
2004 11 10    02 16.26   +24 46.1    0.019    1.009   167.0    12.8    17.7
2004 11 11    01 36.03   +23 20.0    0.012    1.002   158.2    21.5    17.0
2004 11 12    23 40.18   +15 24.0    0.0066   0.994   129.9    49.8    16.4
2004 11 13    19 22.67   -13 15.3    0.0063   0.986    59.8   119.8    19.3
2004 11 14    17 18.55   -22 39.8    0.012    0.979    28.6   151.1    24.5
2004 11 15    16 36.17   -24 24.9    0.019    0.971    18.2   161.4    28.3
2004 11 16    16 16.30   -24 58.1    0.026    0.964    13.2   166.5    31.5

Timothy B. Spahr             (C) Copyright 2004 MPC           M.P.E.C. 2004-V50

Read MPEC 2004-V49 Read MPEC 2004-V51


Our Web policy. Index to the CBAT/MPC/ICQ pages.


Valid HTML 4.01!